Miscellaneous Local Product
Issued by NWS Hastings, NE

Home | Current Version | Previous Version | Graphics & Text | Print | Product List | Glossary On
Versions: 1 2 3 4 5 6 7 8 9 10 11 12 13 14 15 16 17 18 19 20 21 22 23 24 25 26 27 28 29 30 31 32 33 34 35 36 37 38 39 40 41 42 43 44 45 46 47 48 49 50
000
AXUS43 KGID 241802
MISGRI

GID CWA HOURLY WEATHER ROUNDUP
NATIONAL WEATHER SERVICE HASTINGS NE
100 PM CDT MON APR 24 2017

NOTE: "FAIR" INDICATES FEW OR NO CLOUDS BELOW 12,000 FEET WITH NO
SIGNIFICANT WEATHER AND/OR OBSTRUCTIONS TO VISIBILITY.

...SOUTH CENTRAL NEBRASKA...

CITY           SKY/WX    TMP DP  RH WIND       PRES   REMARKS
GRAND ISLAND   PTSUNNY   67  42  40 SW16      29.55F
HASTINGS       MOSUNNY   66  38  35 SW15      29.56S
KEARNEY        CLOUDY    63  37  39 S7        29.55S
ORD            CLOUDY    62  39  42 VRB6      29.55S
YORK           CLOUDY    72  37  28 SW24G33   29.55F
AURORA         CLOUDY    66  38  35 SW17      29.54F
LEXINGTON      CLOUDY    62  39  42 NE3       29.54S
HOLDREGE       PTSUNNY   62  37  40 NE3       29.53F
HEBRON         MOSUNNY   71  39  31 S25G35    29.57F

...NEBRASKA PANHANDLE...

CITY           SKY/WX    TMP DP  RH WIND       PRES   REMARKS
CHADRON        SUNNY     62  40  44 NW13G21   29.62S
ALLIANCE       SUNNY     64  36  35 NW17G24   29.62F
SCOTTSBLUFF    SUNNY     66  33  29 NW15G21   29.64F
SIDNEY         SUNNY     63  40  42 NW23G29   29.65F

...WESTERN AND NORTH CENTRAL NEBRASKA...

CITY           SKY/WX    TMP DP  RH WIND       PRES   REMARKS
VALENTINE      PTSUNNY   56  39  53 NW18G28   29.58F
AINSWORTH      CLOUDY    49  41  73 N15       29.60R
ONEILL         MOSUNNY   64  39  40 SW7       29.55F
BROKEN BOW     MOSUNNY   66  41  40 E6        29.52F
IMPERIAL       SUNNY     70  40  33 N22G32    29.59S
NORTH PLATTE   SUNNY     68  45  43 NW20G29   29.55R
MCCOOK         SUNNY     75  43  31 N13G21    29.54F

...EASTERN NEBRASKA...

CITY           SKY/WX    TMP DP  RH WIND       PRES   REMARKS
NORFOLK        CLOUDY    69  38  32 S23G32    29.54F
SO SIOUX CITY  MOSUNNY   71  39  31 S26G37    29.60F
TEKAMAH        CLOUDY    69  39  33 S30G39    29.60F
COLUMBUS       CLOUDY    70  39  32 S21G30    29.56F
ALBION         CLOUDY    67  40  36 S18G25    29.54F
OMAHA EPPLEY   PTSUNNY   71  35  26 S28G39    29.62F
OFFUTT AFB     MOSUNNY   71  35  26 S30G38    29.62F
MILLARD        SUNNY     71  39  30 S23G31    29.62F
LINCOLN        SUNNY     73  39  29 S22G37    29.58F
NEBRASKA CITY  SUNNY     70  28  20 S25G37    29.65F
BEATRICE       SUNNY     71  42  35 S22G35    29.59F
FALLS CITY     SUNNY     70  36  28 S24G38    29.67F

...NORTHERN KANSAS...

CITY           SKY/WX    TMP DP  RH WIND       PRES   REMARKS
GOODLAND       SUNNY     71  40  32 N18G28    29.62F
HILL CITY      CLOUDY    74  43  32 NW17G24   29.55S
NORTON         CLEAR     68  37  32 NW16      29.55S
PHILLIPSBURG   SUNNY     72  39  30 SW7       29.53F
SMITH CENTER   SUNNY     70  39  32 S21       29.54F
HAYS           MOSUNNY   74  46  36 S21G28    29.54S
RUSSELL        CLOUDY    71  41  33 S29G39    29.55F
CONCORDIA      PTSUNNY   67  45  45 S25G35    29.56F
SALINA         CLOUDY    73  46  38 S21G41    29.61S
TOPEKA         SUNNY     71  40  32 S23G32    29.73F



USA.gov is the U.S. government's official web portal to all federal, state and local government web resources and services.